Content
SEND FEEDBACK

Daily
Averages
Monthly
Summary
United States of America

TOULON, ILLINOIS


Home > North America > United States > Illinois
Elevation: 750 feet     Latitude: 41 05N     Longitude: 089 52W

WEATHER
 
SELECT A DAY
Number of Records: 322,698;   Date Range: 7/17/01 - 7/7/14
 
SHARE

PRINT THIS DATA

[ ← Previous Day ]
WEATHER ALMANAC - FEBRUARY 13, 2013
[ Next Day → ]
[ °C ]   °F
Weather ElementAverageHighLow
Temperature34 °F45.3 °F (2:55 pm)23.7 °F (1:55 am)
Dewpoint27.7 °F32 °F (4:55 pm)21.7 °F (5:15 am)
Humidity79.1 %96 % (1:55 am)55 % (3:15 pm)
Barometer29.80 in29.91 in (12:35 am)29.75 in (1:55 pm)
Wind Speed3.8 mph11.5 mph (2:55 pm)
Wind Gust17.3 mph (1:35 pm)
Weather ElementAverage
Visibility8.5 mi
Wind DirectionESE (124.2 °)

Weather ElementTotal
Precipitation---
Heating Degree Days30.5 (Base 65)
Averaged from 71 records on February 13, 2013
WEATHER CONDITIONS BREAKOUT
WIND DIRECTION BREAKOUT
WEATHER BY HOUR - FEBRUARY 13, 2013
[ °C ]   °F
Local TimeTemperatureDewpointHumidityBarometerVisibilityWind DirectionWind SpeedGust SpeedPrecipitationEventsConditions
12:35 AM25.9 °F23.7 °F92 %29.91 in5.0 miCalmClear
12:55 AM24.6 °F22.8 °F93 %29.90 in5.0 miCalmClear
1:15 AM25.9 °F24.4 °F94 %29.89 in5.0 miCalmClear
1:35 AM24.3 °F22.8 °F94 %29.89 in5.0 miCalmClear
1:55 AM23.7 °F22.6 °F96 %29.89 in5.0 miSouth (180°)3.5 mphClear
2:15 AM25.7 °F23.9 °F93 %29.88 in5.0 miSouth (170°)3.5 mphClear
2:35 AM25.5 °F23.4 °F92 %29.87 in7.0 miSouth (180°)3.5 mphClear
2:55 AM25.5 °F23.7 °F93 %29.86 in5.0 miCalmClear
3:15 AM26.6 °F24.4 °F92 %29.86 in7.0 miCalmClear
3:35 AM27.0 °F24.6 °F91 %29.85 in7.0 miSouth (170°)3.5 mphClear
3:55 AM26.2 °F23.7 °F90 %29.85 in7.0 miSouth (180°)4.6 mphClear
4:15 AM26.1 °F23.4 °F90 %29.84 in7.0 miSouth (180°)3.5 mphClear
4:35 AM26.8 °F24.6 °F92 %29.83 in7.0 miCalmClear
4:55 AM28.2 °F24.1 °F84 %29.82 in10.0 miCalmClear
5:15 AM24.3 °F21.7 °F90 %29.82 in7.0 miCalmClear
5:35 AM27.0 °F24.3 °F90 %29.81 in7.0 miCalmClear
5:55 AM26.6 °F23.0 °F86 %29.80 in7.0 miCalmClear
6:15 AM25.9 °F23.0 °F89 %29.81 in7.0 miCalmClear
6:35 AM27.1 °F24.4 °F90 %29.80 in7.0 miCalmClear
6:55 AM26.2 °F23.7 °F90 %29.80 in5.0 miCalmClear
7:15 AM25.2 °F22.3 °F89 %29.81 in5.0 miCalmClear
7:35 AM25.3 °F22.6 °F89 %29.81 in5.0 miCalmClear
7:55 AM28.2 °F25.2 °F88 %29.81 in5.0 miCalmClear
8:15 AM29.8 °F26.8 °F88 %29.81 in5.0 miCalmClear
8:35 AM30.9 °F27.3 °F86 %29.81 in5.0 miSouth (190°)3.5 mphClear
8:55 AM31.8 °F27.7 °F85 %29.81 in7.0 miSouth (190°)4.6 mphClear
9:15 AM32.9 °F27.9 °F82 %29.81 in7.0 miSouth (190°)5.8 mphClear
9:35 AM34.7 °F28.2 °F77 %29.81 in10.0 miSSW (210°)5.8 mphClear
9:55 AM35.4 °F27.9 °F74 %29.80 in10.0 miSSW (200°)8.1 mphClear
10:15 AM36.0 °F27.5 °F71 %29.81 in10.0 miSSW (210°)5.8 mphClear
10:35 AM37.0 °F27.9 °F69 %29.80 in10.0 miSouth (180°)6.9 mphClear
10:55 AM38.1 °F28.2 °F68 %29.79 in10.0 miSouth (190°)5.8 mphClear
11:15 AM39.0 °F28.2 °F65 %29.79 in10.0 miSouth (190°)5.8 mphClear
11:35 AM39.9 °F28.9 °F65 %29.79 in10.0 miSouth (190°)6.9 mphClear
11:55 AM40.8 °F29.3 °F64 %29.78 in10.0 miSouth (180°)6.9 mphClear
12:15 PM42.3 °F30.0 °F62 %29.77 in10.0 miSSW (210°)5.8 mphClear
12:35 PM43.3 °F29.5 °F58 %29.76 in10.0 miSSW (210°)8.1 mphClear
12:55 PM44.2 °F29.3 °F56 %29.76 in10.0 miSW (230°)8.1 mphClear
1:15 PM43.9 °F30.9 °F60 %29.76 in10.0 miWest (270°)10.4 mphClear
1:35 PM43.2 °F30.7 °F62 %29.76 in10.0 miWSW (250°)10.4 mph17.3 mphClear
1:55 PM43.9 °F30.9 °F60 %29.75 in10.0 miWSW (250°)9.2 mphClear
2:15 PM44.6 °F30.9 °F59 %29.75 in10.0 miSW (230°)9.2 mphClear
2:35 PM45.0 °F30.9 °F58 %29.75 in10.0 miWSW (240°)8.1 mphClear
2:55 PM45.3 °F30.6 °F56 %29.75 in10.0 miSW (220°)11.5 mph16.1 mphClear
3:15 PM45.0 °F29.5 °F55 %29.75 in10.0 miSW (230°)9.2 mph17.3 mphClear
3:35 PM44.4 °F30.9 °F59 %29.75 in10.0 miWSW (240°)10.4 mph16.1 mphClear
3:55 PM44.2 °F31.1 °F60 %29.75 in10.0 miSW (220°)6.9 mphClear
4:15 PM43.9 °F31.5 °F62 %29.76 in10.0 miWSW (240°)8.1 mphClear
4:35 PM43.9 °F31.6 °F62 %29.76 in10.0 miWest (270°)8.1 mphClear
4:55 PM42.3 °F32.0 °F67 %29.77 in10.0 miWest (260°)6.9 mphClear
5:15 PM41.2 °F31.6 °F69 %29.77 in10.0 miWSW (250°)4.6 mphClear
5:35 PM39.6 °F31.5 °F73 %29.77 in10.0 miCalmClear
5:55 PM37.8 °F30.6 °F75 %29.78 in10.0 miCalmClear
6:15 PM36.1 °F30.4 °F80 %29.78 in10.0 miCalmClear
6:35 PM34.9 °F30.4 °F84 %29.79 in10.0 miCalmClear
6:55 PM33.1 °F29.5 °F87 %29.79 in10.0 miCalmClear
7:15 PM31.8 °F28.6 °F88 %29.78 in10.0 miCalmClear
7:35 PM32.0 °F28.8 °F88 %29.78 in10.0 miCalmClear
7:55 PM32.2 °F29.7 °F90 %29.78 in10.0 miCalmClear
8:15 PM30.9 °F27.5 °F87 %29.78 in10.0 miSouth (180°)3.5 mphClear
8:35 PM34.9 °F29.8 °F82 %29.78 in10.0 miCalmClear
8:55 PM32.0 °F28.0 °F85 %29.78 in10.0 miSouth (170°)3.5 mphClear
9:15 PM32.4 °F28.4 °F85 %29.78 in10.0 miSouth (190°)3.5 mphMostly Cloudy
9:35 PM34.0 °F29.7 °F84 %29.77 in10.0 miCalmMostly Cloudy
9:55 PM33.8 °F29.5 °F84 %29.77 in10.0 miSouth (180°)3.5 mphScattered Clouds
10:15 PM33.8 °F29.7 °F85 %29.77 in10.0 miSouth (180°)4.6 mphScattered Clouds
10:35 PM33.6 °F29.8 °F86 %29.77 in10.0 miSouth (190°)4.6 mphScattered Clouds
10:55 PM34.7 °F30.2 °F84 %29.76 in10.0 miSouth (180°)4.6 mphMostly Cloudy
11:15 PM36.1 °F30.9 °F81 %29.76 in10.0 miSSW (200°)4.6 mphMostly Cloudy
11:35 PM35.6 °F31.1 °F84 %29.75 in10.0 miSouth (170°)4.6 mphMostly Cloudy
11:55 PM37.6 °F31.1 °F77 %29.75 in10.0 miSouth (180°)6.9 mphScattered Clouds
Hourly data recorded from KC75, located miles away from Toulon, Illinois







STORIES FROM OUR PARTNERS